Showing default

O3B FM20, 44112

Orbit data source: Space-Track

O3B FM20, 44112 is a payload satellite owned by O3B SES (JE) that was launched on Thu, 04 Apr 2019 UTC via a SOYUZ-ST-B launch vehicle from the French Guiana (FRGUI). Payload-class satellites include a variety of spacecraft equipped with specific instruments for various scientific and technological missions. These include communications satellites like Starlink; space stations such as the ISS; scientific satellites like the Hubble; Earth observation satellites from companies like Planet Labs, Umbra, and HawkEye 360; GPS; miniature CubeSats for education and research; and military/defense satellites.

Loading next visibility...
Identifier
44112, 2019-020A
Orbit
Active
Country
Flag of UnknownUnknown / O3B
Related business
Manufacturer
Thales Alenia
Mission
Operational Commercial Communications
Bus & Motor
PRISMA?, LS-400 AOCS?
Mass
700 kg wet, ~500 kg dry
Launch date (UTC)
2019-04-04 (7 years ago)
Launch vehicle
SOYUZ-ST-B
Launch site
French Guiana (FRGUI)
Object type
Payload
Rocket body
Debris
Shape & HBR
Trap Box + 2 Pan, 6.0 m
Radar Cross Section
21.980 m², Large (>1 m²)

Expand to show TLE details & history
Last TLE update: 9 hours ago

TLE from 9 hours ago
0 O3B FM20
1 44112U 19020A   25343.51580142 -.00000023  00000-0  00000-0 0  9993
2 44112   0.0479   0.5581 0003184 249.5341 109.8742  5.00115415122072
Epoch: 2025-12-09T12:22Z
TLE epoch observation values (Epoch: 2025-12-09T12:22:45.242Z)
Latitude
0.00073°
Longitude
95.8121°
Altitude
8,065.938 km
Speed
5.254 km/s
True Right ascension
23h 59m 59s
True Declination
0° 00' 03"
Sunlit
Object was in daylight at epoch
Visualization orbit readout
Latitude
Unknown
Longitude
Unknown
Altitude
Unknown
Speed
Unknown
Apparent Right ascension
Unknown
Apparent Declination
Unknown
Sunlit
N/A
Visualization observer readout
Local Sidereal Time
19:39:59
Azimuth
Unknown
Elevation
Unknown
Doppler factor
Unknown
Orbital elements
Apogee altitude
8,073.55 km
Perigee altitude
8,064.35 km
Semi-major axis
14,447.087 km
Eccentricity
0.00032
Inclination
0.0479°
RAAN
0.5581°
Arg. of periapsis
249.5341°
True anomaly
109.90851°
Mean anomaly
109.8742°
Eccentric anomaly
109.89135°
Mean motion
1.24989 °/min
Orbital period
288.02 mins
BSTAR
0
Loading maneuver chart data...
Computing Atmospheric mass density...
Loading historical data...
Loading historical data...
Loading historical data...
Loading historical data...
Loading historical data...
Loading historical data...
Loading historical data...
Other satellites on launch #20 in the year 2019 (2019-04-04 UTC)

Documentation

Showing up to 5 results
|